SCP
0 0 0 0 0 0 0 -0 0 -0 0 0 0 0 0 0 0 0 0 0 0 0 0 0 -0 -0 0 0 0 -0 0 -0 0 0 -0 -0 -0 -0 -0 -0 -0 -0 -0 -0 -0 -0 -0 -0 -0
0 0 0 0 0 0 -0 0 0 0 -0 0 0 0 0 -0 0 0 0 -0 -0 -0 0 0 0 0 -0 0 0 -0 -0 -0 -0 -0 -0 -0 -0 -0 -0 -0 -0 -0 -0 -0 -0 -0 -0 -0 -0
0 0 0 -0 0 -0 -0 0 0 0 -0 0 -0 0 -0 -0 0 0 0 -0 -0 0 0 0 0 0 0 0 0 -0 0 -0 -0 -0 -0 -0 -0 -0 -0 -0 -0 -0 -0 -0 -0 -0 -0 -0 -0
0 0 0 0 0 0 0 0 -0 0 0 0 -0 -0 0 0 0 0 0 -0 -0 0 0 0 0 0 0 0 0 0 -0 -0 -0 -0 -0 0 -0 -0 -0 -0 -0 -0 -0 -0 -0 -0 -0 -0 -0
0 0 0 0 0 0 0 0 0 0 0 -0 0 0 0 0 0 0 0 0 -0 0 0 0 0 0 0 0 -0 -0 0 -0 -0 -0 0 0 0 0 -0 -0 -0 -0 -0 -0 -0 -0 -0 -0 -0
0 0 0 -0 -0 0 0 -0 0 0 0 -0 0 0 0 0 0 0 0 0 0 0 0 0 0 0 -0 0 -0 0 -0 -0 -0 0 0 0 0 0 0 -0 -0 -0 -0 -0 -0 -0 -0 -0 -0
0 0 0 -0 0 0 0 0 0 -0 0 0 -0 0 0 0 0 0 0 0 0 0 0 0 0 0 0 0 -0 -0 -0 -0 -0 0 0 0 0 0 0 0 -0 -0 -0 -0 -0 -0 -0 -0 -0
0 0 0 0 0 -0 0 0 0 0 0 0 0 0 0 -0 0 0 0 0 0 0 0 0 0 0 0 0 0 -0 0 -0 0 0 0 0 0 0 0 0 -0 -0 -0 -0 -0 -0 -0 -0 -0
0 0 0 0 0 -0 0 0 0 0 0 0 0 0 0 0 0 0 0 0 0 0 0 0 0 0 -0 -0 0 0 -0 0 0 0 0 0 0 0 0 0 -0 -0 -0 -0 -0 -0 -0 -0 -0
0 0 0 0 0 0 0 0 0 0 0 0 0 0 -0 0 0 0 0 0 0 0 0 0 -0 -0 0 0 0 0 0 0 0 0 0 0 0 0 0 0 0 -0 -0 -0 -0 -0 -0 0 -0
0 0 0 0 0 0 0 0 0 0 0 0 0 0 0 0 0 0 0 0 0 0 0 0 0 0 -0 0 0 0 0 0 0 0 0 0 0 0 0 0 0 0 0 0 0 0 0 0 -0
0 0 0 0 0 0 0 0 0 0 0 0 0 0 0 0 0 0 0 0 0 0 0 0 0 -0 -0 0 0 0 0 0 0 0 0 0 0 0 0 0 0 0 0 0 0 0 0 0 0
0 0 0 0 0 0 0 0 0 0 0 0 0 0 0 0 0 0 0 0 0 0 0 0 -0 -0 -0 -0 0 0 0 0 0 0 0 0 0 0 0 0 0 0 0 0 0 0 0 0 0
0 0 0 0 0 0 0 0 0 0 0 0 0 0 0 0 0 0 0 0 0 0 0 0 -0 -0 -0 0 0 0 0 0 0 0 0 0 0 0 0 0 0 0 0 0 0 0 0 0 0
0 0 0 0 0 0 0 0 0 0 0 0 0 0 0 0 0 0 0 0 0 0 0 -0 -0 -0 -0 0 0 0 0 0 0 0 0 0 0 0 0 0 0 0 0 0 0 0 0 0 0
0 0 0 0 0 0 0 0 0 0 0 0 0 0 0 0 0 0 0 0 0 0 0 0 0 0 0 0 0 0 0 0 0 0 0 0 0 0 0 0 0 0 0 0 0 0 0 0 0
0 0 0 0 0 0 0 0 0 0 0 0 0 0 0 -0 -0 0 0 0 0 0 0 0 0 0 0 0 0 0 0 0 0 0 0 0 0 0 0 0 0 0 0 0 0 0 0 0 0
0 0 0 0 0 0 0 0 0 0 0 0 0 0 0 0 0 0 0 0 0 0 0 0 0 0 0 0 0 0 0 0 0 0 0 0 0 0 0 0 0 0 0 0 0 0 0 0 0
0 0 0 0 0 0 -0 0 0 0 0 -0 0 0 0 0 0 0 0 0 0 0 0 0 0 0 0 0 0 0 0 0 0 0 0 0 0 0 0 0 0 0 0 0 0 0 0 0 0
0 0 0 0 0 0 0 0 0 -0 0 0 0 0 0 0 0 0 0 0 0 0 0 0 0 0 0 0 0 0 0 0 0 0 0 0 0 0 0 0 0 0 0 0 0 0 0 0 0
0 0 0 0 0 0 0 0 0 0 0 0 0 0 0 0 0 0 0 0 0 0 0 0 0 0 0 0 0 0 0 0 0 0 0 0 0 0 0 0 0 0 0 0 0 0 0 0 0
0 0 0 0 0 0 0 -0 0 0 0 -0 0 0 0 0 0 0 0 0 0 0 0 0 0 0 0 0 0 0 0 0 0 0 0 0 0 0 0 0 0 0 0 0 0 0 0 0 0
0 0 0 0 0 0 0 0 -0 0 0 0 -0 0 0 0 0 0 0 0 0 0 0 0 0 0 0 0 0 0 0 0 0 0 0 0 0 0 0 0 0 0 0 0 0 0 0 0 0
0 0 0 0 0 0 0 0 -0 0 0 0 0 0 0 0 0 0 0 0 0 0 0 0 0 0 0 0 0 0 0 0 0 0 0 0 0 0 0 0 0 0 0 0 0 0 0 0 0
0 0 0 0 0 0 0 0 0 0 0 0 0 0 0 0 0 0 0 0 0 0 0 0 0 0 0 0 0 0 0 0 0 0 0 0 0 0 0 0 0 0 0 0 0 0 0 0 0
0 0 0 0 0 0 0 0 0 0 0 0 0 0 0 0 0 0 -0 -0 0 0 0 0 0 0 0 0 0 0 0 0 0 0 0 0 0 0 0 0 0 0 0 0 0 0 0 0 0
0 0 0 0 0 0 0 0 0 0 0 0 0 0 0 0 0 0 0 0 0 0 0 0 0 0 0 0 0 0 0 0 0 0 0 0 0 0 0 0 0 0 0 0 0 0 0 0 0
0 0 0 0 0 0 0 0 0 0 0 0 0 0 0 0 0 0 0 0 0 0 0 0 0 0 0 0 0 0 0 0 0 0 0 0 0 0 0 0 0 0 0 0 0 0 0 0 0
0 0 0 0 0 0 0 0 0 0 0 0 0 0 0 0 0 0 0 0 0 0 0 0 0 0 0 0 0 0 0 0 0 0 0 0 0 0 0 0 0 0 0 0 0 0 0 0 0
0 0 0 0 0 0 0 0 0 0 0 0 0 0 0 0 0 0 0 0 0 0 0 0 0 0 0 0 0 0 0 0 0 0 0 0 0 0 0 0 0 0 0 0 0 0 0 0 0
Wind_Speed_500mb
16 14 9 4 8 8 1 1 3 8 5 10 18 20 21 16 7 6 25 13 15 9 10 17 17 17 28 29 32 39 35 29 15 20 28 30 31 34 35 36 38 39 41 44 44 44 44 41 39
15 10 6 2 8 5 1 8 6 5 29 28 21 17 14 7 6 25 23 19 15 10 11 21 21 20 24 32 34 36 29 26 16 15 28 32 36 36 36 37 39 40 42 43 43 44 42 41 41
15 10 4 6 6 8 8 4 9 23 32 6 12 20 9 10 21 28 18 20 15 9 14 20 24 20 23 31 36 36 30 19 12 21 36 31 34 35 38 38 39 41 42 43 43 43 41 41 42
9 3 4 6 4 3 16 14 14 24 12 6 29 18 11 13 15 18 21 15 11 9 11 16 14 22 27 33 40 33 32 20 17 36 30 34 34 38 39 40 41 42 42 44 44 43 42 43 45
8 3 6 7 8 3 6 28 23 9 10 15 5 11 9 16 14 22 17 13 11 10 13 16 21 23 27 37 39 43 38 22 19 33 33 32 37 38 39 40 41 42 43 44 43 42 42 44 44
2 2 6 6 6 3 7 27 20 11 14 16 16 15 9 21 24 25 17 14 12 11 17 16 14 13 18 39 44 45 40 26 24 31 32 36 37 38 39 39 41 41 42 42 41 42 43 43 44
5 6 7 12 11 6 10 31 24 20 14 7 25 11 17 30 28 24 20 17 17 15 15 16 15 15 17 24 53 44 37 30 31 29 34 35 35 35 36 38 39 39 40 39 41 42 41 42 42
3 8 2 6 11 9 14 11 20 18 8 15 7 14 14 43 35 27 23 18 20 21 18 15 16 17 21 28 44 47 32 31 33 35 33 32 32 32 34 36 37 37 38 39 40 40 39 40 41
4 6 2 8 13 9 23 11 10 10 17 9 5 13 4 47 39 33 29 26 23 21 19 17 16 21 26 29 40 44 33 32 34 33 33 29 29 29 32 32 34 35 36 36 37 37 38 39 40
5 6 3 4 8 13 23 24 23 13 10 5 8 12 28 44 41 36 32 29 26 23 19 18 20 24 28 30 37 37 33 32 33 31 29 27 27 27 27 29 31 33 32 32 33 35 37 38 40
6 7 3 10 2 36 29 21 13 27 6 18 25 36 47 43 40 35 30 24 21 23 22 21 21 24 27 30 33 35 32 30 31 28 28 26 24 24 25 25 28 29 30 29 31 33 34 36 38
6 2 4 4 12 18 24 24 13 21 7 10 15 34 46 45 44 40 34 31 28 26 24 21 23 25 29 31 32 32 29 27 27 28 27 24 22 22 22 22 24 24 26 25 28 29 32 33 36
7 6 6 12 19 22 26 12 10 17 15 18 31 36 39 42 40 35 29 28 28 27 25 23 23 26 28 30 31 31 30 28 27 27 27 25 22 21 20 20 21 20 21 21 23 26 27 30 32
10 11 8 7 13 11 11 5 10 14 21 30 39 37 39 44 43 41 41 35 31 27 27 26 26 28 29 29 29 29 29 29 30 27 26 26 24 21 20 18 17 17 18 18 19 21 22 24 28
28 11 6 1 6 5 14 4 13 20 31 38 43 40 42 46 47 47 40 34 30 28 29 29 28 29 29 29 28 29 29 29 30 28 27 26 25 23 21 19 17 16 15 14 14 15 16 18 22
6 10 6 4 9 3 9 13 10 29 44 43 45 45 46 50 52 46 40 35 34 36 34 33 31 29 29 29 28 28 29 31 31 30 29 27 26 25 23 21 19 16 13 12 10 10 11 11 15
10 7 7 4 19 6 7 11 7 39 48 45 47 49 51 52 54 52 49 43 41 40 37 36 34 31 30 30 30 30 31 33 32 32 31 30 28 27 26 24 22 19 14 11 9 7 7 6 8
10 6 5 9 10 5 7 20 4 42 48 53 51 53 56 59 63 58 55 50 46 44 41 39 37 36 33 33 33 34 34 34 34 34 33 32 31 30 29 28 25 22 18 14 10 7 4 3 5
10 7 6 5 3 7 13 14 16 38 47 53 55 60 64 67 58 58 58 56 53 51 50 47 44 41 39 37 37 37 35 34 34 35 35 35 34 33 32 31 29 26 22 18 14 10 6 4 6
3 4 2 5 3 5 4 20 22 27 43 69 75 72 75 70 66 65 68 66 64 59 55 53 48 44 39 38 35 34 33 35 34 35 36 37 37 36 34 32 31 29 26 23 19 14 11 7 7
5 10 7 5 2 3 7 16 13 13 45 59 79 84 82 81 76 74 77 77 71 69 62 56 51 47 43 41 42 41 41 41 41 39 39 38 38 37 35 34 33 31 29 26 22 18 16 14 9
9 11 12 12 6 7 3 10 13 13 17 21 56 79 89 88 85 79 80 82 81 74 62 59 54 52 48 48 48 44 38 37 34 34 35 38 39 38 37 37 35 33 31 28 25 23 19 17 15
12 10 15 7 7 5 3 2 16 8 17 23 37 65 77 88 87 87 87 82 76 74 69 63 58 57 55 54 49 45 43 39 37 38 39 39 39 39 38 37 36 35 32 30 27 25 22 20 18
16 13 15 10 6 5 12 13 11 10 12 9 12 29 56 70 84 85 83 82 79 74 72 68 66 63 59 58 53 50 47 44 42 40 41 40 40 40 39 38 37 35 33 31 28 26 24 21 19
10 13 4 6 4 12 3 5 16 17 17 13 16 14 17 38 62 80 85 90 87 81 77 74 72 69 65 63 59 54 50 47 40 38 38 40 40 40 39 38 36 34 33 31 29 27 24 22 20
11 14 10 14 9 8 4 12 12 16 19 25 29 30 30 28 45 67 81 86 87 81 78 76 76 72 69 66 62 57 53 49 43 40 40 38 37 36 38 37 36 35 34 32 30 28 26 24 21
11 9 9 12 5 4 8 15 19 16 7 17 24 26 27 28 32 50 70 82 86 84 81 77 75 72 70 68 64 62 57 52 47 43 41 39 40 41 39 38 37 36 34 33 31 29 28 26 23
6 10 5 5 5 7 6 9 12 10 13 18 20 22 28 24 27 41 56 73 79 82 81 77 74 73 68 68 67 65 59 53 49 47 44 43 43 43 41 40 39 37 36 34 32 31 29 27 25
5 6 4 8 10 10 3 11 12 6 2 11 23 34 24 19 24 30 45 59 69 74 79 77 75 73 71 68 68 68 63 58 54 51 46 45 45 44 43 41 40 38 36 35 34 33 31 29 26
1 10 11 9 8 5 5 11 3 4 8 13 21 30 27 23 17 23 33 47 56 64 70 75 74 74 69 66 68 69 66 63 60 55 50 49 48 45 43 43 42 41 39 38 36 34 31 29 27
Wind_Direction_500mb
327 328 336 8 54 71 344 74 84 118 71 58 75 87 109 64 57 160 136 188 203 194 136 133 127 108 135 123 124 131 107 92 108 101 104 110 102 90 84 81 79 78 76 75 76 76 75 73 66
333 343 347 71 86 74 260 332 114 159 135 111 76 83 49 95 100 142 145 184 193 184 157 149 135 132 134 132 123 136 124 99 119 120 112 100 91 89 88 86 83 80 78 78 77 77 75 71 65
335 337 354 84 104 167 165 230 159 135 147 115 108 79 88 111 128 145 175 193 198 199 196 148 144 142 134 134 130 135 133 105 135 116 99 105 101 92 88 87 85 82 79 78 76 73 71 67 62
345 335 73 77 163 305 157 184 185 133 119 137 124 77 91 146 157 180 172 177 189 168 160 170 146 143 135 134 132 124 124 132 123 109 108 104 103 95 90 86 83 80 77 74 70 67 64 61 60
344 341 60 76 347 54 97 167 158 118 100 142 141 147 98 144 182 179 170 169 182 172 166 159 156 147 146 139 133 121 118 155 153 117 112 112 104 96 90 86 83 79 75 71 69 66 63 62 61
347 87 71 138 190 178 159 164 144 118 128 144 108 106 139 162 176 176 175 170 173 166 157 165 172 164 150 149 141 134 140 153 156 126 125 118 106 98 92 87 82 79 75 72 69 65 62 61 61
137 83 200 149 169 158 150 149 138 137 120 52 134 94 154 167 184 185 177 171 168 165 160 157 163 164 155 159 151 150 151 145 146 129 123 118 108 101 95 89 86 81 77 73 68 66 64 63 60
297 99 88 172 185 198 150 110 140 133 111 133 169 167 189 176 182 179 178 174 161 165 164 156 160 152 157 155 157 157 151 157 141 129 124 120 113 105 96 91 88 84 78 72 69 68 66 64 60
239 66 251 171 163 197 145 115 120 126 135 148 182 154 220 173 178 180 178 174 170 164 160 160 157 155 156 153 155 159 163 149 141 136 130 125 120 111 102 96 90 84 79 75 71 69 68 66 62
127 110 239 204 191 170 159 142 145 141 133 97 150 154 160 172 179 184 180 176 171 171 166 163 165 157 151 152 159 162 159 148 144 139 137 134 129 118 109 100 94 89 83 79 74 70 67 66 62
166 168 250 8 230 165 147 141 139 136 217 209 187 164 165 175 183 187 180 177 170 174 175 171 168 159 153 155 159 160 159 156 155 150 148 147 141 130 117 108 100 94 89 85 80 76 72 66 62
111 46 135 58 129 146 151 144 123 168 207 207 196 175 173 183 187 185 182 176 180 181 181 175 168 170 167 167 169 171 171 169 166 163 160 161 155 145 131 119 110 104 97 90 85 79 73 66 62
131 172 83 105 137 140 149 141 162 185 181 179 175 178 186 192 192 188 188 184 186 187 185 180 180 179 180 179 179 181 181 178 176 175 173 170 168 160 146 135 124 116 107 99 88 80 73 68 62
155 126 114 128 110 118 136 120 169 200 178 178 182 186 192 198 197 193 197 195 191 190 191 190 187 186 186 187 186 185 185 186 183 183 184 180 178 173 164 156 145 135 120 106 95 87 80 72 67
139 92 32 7 156 111 124 310 228 205 183 186 189 193 198 202 202 209 205 200 200 195 198 198 196 193 191 192 192 192 192 194 193 192 192 192 189 184 179 175 165 154 138 121 109 100 93 80 73
91 69 113 270 159 156 134 257 260 204 189 199 198 199 204 206 212 213 212 211 209 208 202 202 202 200 196 195 197 199 199 201 201 201 201 200 200 194 193 190 184 180 164 151 134 111 98 91 78
10 182 174 284 199 131 154 258 278 190 194 206 208 207 210 213 215 216 215 216 217 214 211 208 206 204 203 201 201 204 204 204 206 207 207 208 208 206 204 202 199 198 189 182 171 147 116 114 96
175 186 191 205 225 176 163 259 257 192 202 218 219 217 217 219 222 217 216 219 221 218 216 215 212 208 204 205 208 208 207 208 208 209 212 214 214 212 213 211 208 209 204 206 200 178 161 143 150
154 149 187 255 307 149 220 263 246 215 219 231 231 227 225 227 227 222 220 222 224 221 218 217 215 212 210 211 212 212 214 213 212 212 214 218 219 218 218 217 216 217 214 215 215 207 200 201 197
127 118 156 311 340 152 305 262 255 227 227 228 230 231 231 231 226 221 219 221 225 226 220 220 218 218 216 215 219 222 222 217 215 216 216 218 221 221 221 222 222 222 222 223 222 219 221 220 227
188 157 186 208 62 47 315 286 264 269 239 240 238 239 236 234 228 219 218 221 224 224 223 222 221 221 218 217 217 217 219 219 221 219 218 219 222 223 224 226 227 227 227 228 227 227 230 234 236
187 200 153 145 116 225 58 276 293 268 272 232 238 232 235 234 232 226 220 221 224 226 224 225 223 222 219 220 224 226 233 234 231 227 224 222 223 224 226 227 229 230 230 232 231 232 234 236 239
211 153 146 134 99 47 325 30 271 278 271 261 244 240 237 235 231 228 224 227 229 227 225 225 224 224 221 225 226 227 226 226 225 225 225 224 224 225 226 227 230 232 232 232 233 235 236 236 239
152 84 50 50 73 338 217 165 274 233 217 268 280 271 245 237 231 230 229 227 228 228 226 227 225 225 223 225 225 225 226 228 228 227 226 225 225 226 227 227 229 231 231 233 234 235 236 239 237
92 84 15 2 14 228 335 164 253 266 251 240 288 301 306 250 233 227 224 222 224 225 225 226 227 226 224 226 225 225 226 228 229 233 234 231 228 228 228 228 230 231 231 231 232 233 236 235 231
180 154 157 196 188 240 93 235 251 236 286 279 273 280 270 267 237 229 229 225 226 226 226 227 228 228 226 227 226 226 226 227 227 229 232 231 230 228 228 228 228 228 229 229 229 230 229 229 231
195 185 164 106 10 35 202 285 288 291 309 335 281 261 261 260 244 233 230 228 227 227 228 230 230 231 229 229 227 226 227 226 226 229 230 228 228 228 227 227 227 227 228 227 225 224 226 229 230
143 164 79 3 138 222 267 275 243 299 355 345 349 316 281 265 257 240 235 231 230 230 230 230 234 237 234 231 228 228 228 228 227 229 231 231 230 229 228 227 227 226 226 225 224 225 226 227 229
151 173 139 127 157 169 185 256 222 276 55 333 347 356 349 297 284 264 245 237 234 233 231 231 234 235 233 232 230 228 228 227 228 230 231 231 231 230 228 227 227 227 226 226 225 225 226 228 229
93 196 157 144 210 223 141 265 258 163 348 7 15 23 18 4 313 279 253 246 240 237 235 235 236 237 236 233 231 230 229 228 229 230 231 231 231 230 228 227 225 225 225 226 227 228 229 230 231
Wind_Speed_850mb
16 14 9 4 8 8 1 1 3 8 5 10 18 20 21 16 7 6 25 13 15 9 10 17 17 17 28 29 32 39 35 29 15 20 28 30 31 34 35 36 38 39 41 44 44 44 44 41 39
15 10 6 2 8 5 1 8 6 5 29 28 21 17 14 7 6 25 23 19 15 10 11 21 21 20 24 32 34 36 29 26 16 15 28 32 36 36 36 37 39 40 42 43 43 44 42 41 41
15 10 4 6 6 8 8 4 9 23 32 6 12 20 9 10 21 28 18 20 15 9 14 20 24 20 23 31 36 36 30 19 12 21 36 31 34 35 38 38 39 41 42 43 43 43 41 41 42
9 3 4 6 4 3 16 14 14 24 12 6 29 18 11 13 15 18 21 15 11 9 11 16 14 22 27 33 40 33 32 20 17 36 30 34 34 38 39 40 41 42 42 44 44 43 42 43 45
8 3 6 7 8 3 6 28 23 9 10 15 5 11 9 16 14 22 17 13 11 10 13 16 21 23 27 37 39 43 38 22 19 33 33 32 37 38 39 40 41 42 43 44 43 42 42 44 44
2 2 6 6 6 3 7 27 20 11 14 16 16 15 9 21 24 25 17 14 12 11 17 16 14 13 18 39 44 45 40 26 24 31 32 36 37 38 39 39 41 41 42 42 41 42 43 43 44
5 6 7 12 11 6 10 31 24 20 14 7 25 11 17 30 28 24 20 17 17 15 15 16 15 15 17 24 53 44 37 30 31 29 34 35 35 35 36 38 39 39 40 39 41 42 41 42 42
3 8 2 6 11 9 14 11 20 18 8 15 7 14 14 43 35 27 23 18 20 21 18 15 16 17 21 28 44 47 32 31 33 35 33 32 32 32 34 36 37 37 38 39 40 40 39 40 41
4 6 2 8 13 9 23 11 10 10 17 9 5 13 4 47 39 33 29 26 23 21 19 17 16 21 26 29 40 44 33 32 34 33 33 29 29 29 32 32 34 35 36 36 37 37 38 39 40
5 6 3 4 8 13 23 24 23 13 10 5 8 12 28 44 41 36 32 29 26 23 19 18 20 24 28 30 37 37 33 32 33 31 29 27 27 27 27 29 31 33 32 32 33 35 37 38 40
6 7 3 10 2 36 29 21 13 27 6 18 25 36 47 43 40 35 30 24 21 23 22 21 21 24 27 30 33 35 32 30 31 28 28 26 24 24 25 25 28 29 30 29 31 33 34 36 38
6 2 4 4 12 18 24 24 13 21 7 10 15 34 46 45 44 40 34 31 28 26 24 21 23 25 29 31 32 32 29 27 27 28 27 24 22 22 22 22 24 24 26 25 28 29 32 33 36
7 6 6 12 19 22 26 12 10 17 15 18 31 36 39 42 40 35 29 28 28 27 25 23 23 26 28 30 31 31 30 28 27 27 27 25 22 21 20 20 21 20 21 21 23 26 27 30 32
10 11 8 7 13 11 11 5 10 14 21 30 39 37 39 44 43 41 41 35 31 27 27 26 26 28 29 29 29 29 29 29 30 27 26 26 24 21 20 18 17 17 18 18 19 21 22 24 28
28 11 6 1 6 5 14 4 13 20 31 38 43 40 42 46 47 47 40 34 30 28 29 29 28 29 29 29 28 29 29 29 30 28 27 26 25 23 21 19 17 16 15 14 14 15 16 18 22
6 10 6 4 9 3 9 13 10 29 44 43 45 45 46 50 52 46 40 35 34 36 34 33 31 29 29 29 28 28 29 31 31 30 29 27 26 25 23 21 19 16 13 12 10 10 11 11 15
10 7 7 4 19 6 7 11 7 39 48 45 47 49 51 52 54 52 49 43 41 40 37 36 34 31 30 30 30 30 31 33 32 32 31 30 28 27 26 24 22 19 14 11 9 7 7 6 8
10 6 5 9 10 5 7 20 4 42 48 53 51 53 56 59 63 58 55 50 46 44 41 39 37 36 33 33 33 34 34 34 34 34 33 32 31 30 29 28 25 22 18 14 10 7 4 3 5
10 7 6 5 3 7 13 14 16 38 47 53 55 60 64 67 58 58 58 56 53 51 50 47 44 41 39 37 37 37 35 34 34 35 35 35 34 33 32 31 29 26 22 18 14 10 6 4 6
3 4 2 5 3 5 4 20 22 27 43 69 75 72 75 70 66 65 68 66 64 59 55 53 48 44 39 38 35 34 33 35 34 35 36 37 37 36 34 32 31 29 26 23 19 14 11 7 7
5 10 7 5 2 3 7 16 13 13 45 59 79 84 82 81 76 74 77 77 71 69 62 56 51 47 43 41 42 41 41 41 41 39 39 38 38 37 35 34 33 31 29 26 22 18 16 14 9
9 11 12 12 6 7 3 10 13 13 17 21 56 79 89 88 85 79 80 82 81 74 62 59 54 52 48 48 48 44 38 37 34 34 35 38 39 38 37 37 35 33 31 28 25 23 19 17 15
12 10 15 7 7 5 3 2 16 8 17 23 37 65 77 88 87 87 87 82 76 74 69 63 58 57 55 54 49 45 43 39 37 38 39 39 39 39 38 37 36 35 32 30 27 25 22 20 18
16 13 15 10 6 5 12 13 11 10 12 9 12 29 56 70 84 85 83 82 79 74 72 68 66 63 59 58 53 50 47 44 42 40 41 40 40 40 39 38 37 35 33 31 28 26 24 21 19
10 13 4 6 4 12 3 5 16 17 17 13 16 14 17 38 62 80 85 90 87 81 77 74 72 69 65 63 59 54 50 47 40 38 38 40 40 40 39 38 36 34 33 31 29 27 24 22 20
11 14 10 14 9 8 4 12 12 16 19 25 29 30 30 28 45 67 81 86 87 81 78 76 76 72 69 66 62 57 53 49 43 40 40 38 37 36 38 37 36 35 34 32 30 28 26 24 21
11 9 9 12 5 4 8 15 19 16 7 17 24 26 27 28 32 50 70 82 86 84 81 77 75 72 70 68 64 62 57 52 47 43 41 39 40 41 39 38 37 36 34 33 31 29 28 26 23
6 10 5 5 5 7 6 9 12 10 13 18 20 22 28 24 27 41 56 73 79 82 81 77 74 73 68 68 67 65 59 53 49 47 44 43 43 43 41 40 39 37 36 34 32 31 29 27 25
5 6 4 8 10 10 3 11 12 6 2 11 23 34 24 19 24 30 45 59 69 74 79 77 75 73 71 68 68 68 63 58 54 51 46 45 45 44 43 41 40 38 36 35 34 33 31 29 26
1 10 11 9 8 5 5 11 3 4 8 13 21 30 27 23 17 23 33 47 56 64 70 75 74 74 69 66 68 69 66 63 60 55 50 49 48 45 43 43 42 41 39 38 36 34 31 29 27
Wind_Direction_850mb
327 328 336 8 54 71 344 74 84 118 71 58 75 87 109 64 57 160 136 188 203 194 136 133 127 108 135 123 124 131 107 92 108 101 104 110 102 90 84 81 79 78 76 75 76 76 75 73 66
333 343 347 71 86 74 260 332 114 159 135 111 76 83 49 95 100 142 145 184 193 184 157 149 135 132 134 132 123 136 124 99 119 120 112 100 91 89 88 86 83 80 78 78 77 77 75 71 65
335 337 354 84 104 167 165 230 159 135 147 115 108 79 88 111 128 145 175 193 198 199 196 148 144 142 134 134 130 135 133 105 135 116 99 105 101 92 88 87 85 82 79 78 76 73 71 67 62
345 335 73 77 163 305 157 184 185 133 119 137 124 77 91 146 157 180 172 177 189 168 160 170 146 143 135 134 132 124 124 132 123 109 108 104 103 95 90 86 83 80 77 74 70 67 64 61 60
344 341 60 76 347 54 97 167 158 118 100 142 141 147 98 144 182 179 170 169 182 172 166 159 156 147 146 139 133 121 118 155 153 117 112 112 104 96 90 86 83 79 75 71 69 66 63 62 61
347 87 71 138 190 178 159 164 144 118 128 144 108 106 139 162 176 176 175 170 173 166 157 165 172 164 150 149 141 134 140 153 156 126 125 118 106 98 92 87 82 79 75 72 69 65 62 61 61
137 83 200 149 169 158 150 149 138 137 120 52 134 94 154 167 184 185 177 171 168 165 160 157 163 164 155 159 151 150 151 145 146 129 123 118 108 101 95 89 86 81 77 73 68 66 64 63 60
297 99 88 172 185 198 150 110 140 133 111 133 169 167 189 176 182 179 178 174 161 165 164 156 160 152 157 155 157 157 151 157 141 129 124 120 113 105 96 91 88 84 78 72 69 68 66 64 60
239 66 251 171 163 197 145 115 120 126 135 148 182 154 220 173 178 180 178 174 170 164 160 160 157 155 156 153 155 159 163 149 141 136 130 125 120 111 102 96 90 84 79 75 71 69 68 66 62
127 110 239 204 191 170 159 142 145 141 133 97 150 154 160 172 179 184 180 176 171 171 166 163 165 157 151 152 159 162 159 148 144 139 137 134 129 118 109 100 94 89 83 79 74 70 67 66 62
166 168 250 8 230 165 147 141 139 136 217 209 187 164 165 175 183 187 180 177 170 174 175 171 168 159 153 155 159 160 159 156 155 150 148 147 141 130 117 108 100 94 89 85 80 76 72 66 62
111 46 135 58 129 146 151 144 123 168 207 207 196 175 173 183 187 185 182 176 180 181 181 175 168 170 167 167 169 171 171 169 166 163 160 161 155 145 131 119 110 104 97 90 85 79 73 66 62
131 172 83 105 137 140 149 141 162 185 181 179 175 178 186 192 192 188 188 184 186 187 185 180 180 179 180 179 179 181 181 178 176 175 173 170 168 160 146 135 124 116 107 99 88 80 73 68 62
155 126 114 128 110 118 136 120 169 200 178 178 182 186 192 198 197 193 197 195 191 190 191 190 187 186 186 187 186 185 185 186 183 183 184 180 178 173 164 156 145 135 120 106 95 87 80 72 67
139 92 32 7 156 111 124 310 228 205 183 186 189 193 198 202 202 209 205 200 200 195 198 198 196 193 191 192 192 192 192 194 193 192 192 192 189 184 179 175 165 154 138 121 109 100 93 80 73
91 69 113 270 159 156 134 257 260 204 189 199 198 199 204 206 212 213 212 211 209 208 202 202 202 200 196 195 197 199 199 201 201 201 201 200 200 194 193 190 184 180 164 151 134 111 98 91 78
10 182 174 284 199 131 154 258 278 190 194 206 208 207 210 213 215 216 215 216 217 214 211 208 206 204 203 201 201 204 204 204 206 207 207 208 208 206 204 202 199 198 189 182 171 147 116 114 96
175 186 191 205 225 176 163 259 257 192 202 218 219 217 217 219 222 217 216 219 221 218 216 215 212 208 204 205 208 208 207 208 208 209 212 214 214 212 213 211 208 209 204 206 200 178 161 143 150
154 149 187 255 307 149 220 263 246 215 219 231 231 227 225 227 227 222 220 222 224 221 218 217 215 212 210 211 212 212 214 213 212 212 214 218 219 218 218 217 216 217 214 215 215 207 200 201 197
127 118 156 311 340 152 305 262 255 227 227 228 230 231 231 231 226 221 219 221 225 226 220 220 218 218 216 215 219 222 222 217 215 216 216 218 221 221 221 222 222 222 222 223 222 219 221 220 227
188 157 186 208 62 47 315 286 264 269 239 240 238 239 236 234 228 219 218 221 224 224 223 222 221 221 218 217 217 217 219 219 221 219 218 219 222 223 224 226 227 227 227 228 227 227 230 234 236
187 200 153 145 116 225 58 276 293 268 272 232 238 232 235 234 232 226 220 221 224 226 224 225 223 222 219 220 224 226 233 234 231 227 224 222 223 224 226 227 229 230 230 232 231 232 234 236 239
211 153 146 134 99 47 325 30 271 278 271 261 244 240 237 235 231 228 224 227 229 227 225 225 224 224 221 225 226 227 226 226 225 225 225 224 224 225 226 227 230 232 232 232 233 235 236 236 239
152 84 50 50 73 338 217 165 274 233 217 268 280 271 245 237 231 230 229 227 228 228 226 227 225 225 223 225 225 225 226 228 228 227 226 225 225 226 227 227 229 231 231 233 234 235 236 239 237
92 84 15 2 14 228 335 164 253 266 251 240 288 301 306 250 233 227 224 222 224 225 225 226 227 226 224 226 225 225 226 228 229 233 234 231 228 228 228 228 230 231 231 231 232 233 236 235 231
180 154 157 196 188 240 93 235 251 236 286 279 273 280 270 267 237 229 229 225 226 226 226 227 228 228 226 227 226 226 226 227 227 229 232 231 230 228 228 228 228 228 229 229 229 230 229 229 231
195 185 164 106 10 35 202 285 288 291 309 335 281 261 261 260 244 233 230 228 227 227 228 230 230 231 229 229 227 226 227 226 226 229 230 228 228 228 227 227 227 227 228 227 225 224 226 229 230
143 164 79 3 138 222 267 275 243 299 355 345 349 316 281 265 257 240 235 231 230 230 230 230 234 237 234 231 228 228 228 228 227 229 231 231 230 229 228 227 227 226 226 225 224 225 226 227 229
151 173 139 127 157 169 185 256 222 276 55 333 347 356 349 297 284 264 245 237 234 233 231 231 234 235 233 232 230 228 228 227 228 230 231 231 231 230 228 227 227 227 226 226 225 225 226 228 229
93 196 157 144 210 223 141 265 258 163 348 7 15 23 18 4 313 279 253 246 240 237 235 235 236 237 236 233 231 230 229 228 229 230 231 231 231 230 228 227 225 225 225 226 227 228 229 230 231